Vertical_Velocity
-2 -2 6 5 0 -1 -4 2 3 0 5 -11 -4 -4 4 1 -6 3 6 -6 2 -2 -3 0 -5 -3 0 1 -6 1 1 -1 2 3 0 -5 -1 0 2 3 0 -1 1 -1
-0 4 9 1 2 -2 -4 4 -1 -0 5 6 -3 -10 -2 -0 -3 -3 -3 4 -3 -2 -0 4 1 -5 -2 -4 -1 -2 -0 0 2 1 -4 -2 1 4 3 2 0 2 1 -0
-2 14 -2 1 2 -0 -0 5 -4 2 -2 2 3 -5 -9 -2 -1 -5 -0 1 -0 -2 -0 3 0 2 -1 0 0 -2 -3 1 -2 -1 -2 -4 -2 10 5 4 6 -2 2 0
-2 10 -1 1 2 2 -1 1 -0 0 3 -0 -6 -5 -4 4 -1 -3 -1 -0 3 7 -2 2 4 1 3 1 -1 -2 -3 -3 0 2 0 -4 4 2 4 2 2 1 4 5
15 6 2 -4 13 -0 7 0 -2 -4 -3 2 -3 -5 -6 -3 1 4 -1 -1 -2 14 0 -0 -0 3 2 4 1 -0 0 -0 -0 3 1 -2 1 0 1 -0 1 0 0 -1
3 -3 -3 6 -1 -3 5 0 -1 -2 0 -2 -3 -7 -4 -1 -4 -3 -2 -1 -2 5 3 -0 -10 2 3 2 3 1 -2 -1 0 -0 -0 0 0 0 0 -1 -1 -1 -1 0
-2 2 4 1 1 -0 3 3 -2 -4 -6 -4 7 -1 -5 -3 -2 -4 7 0 -6 -1 -4 -4 -3 0 4 1 0 -2 -2 -2 -1 1 -0 -1 -0 -0 2 3 0 -0 2 2
-0 0 6 11 11 7 -1 -2 -3 -3 -2 0 1 -2 -10 -4 -3 -7 2 0 -2 -5 1 -1 0 2 3 -0 -3 -2 -2 -4 -4 -0 1 -2 -1 -1 2 1 2 2 1 1
2 9 1 1 3 -1 -1 -1 7 -1 -2 -1 -0 -1 -8 -8 -0 -11 -1 3 -4 -3 -4 -5 -3 1 1 1 -0 -0 -5 -3 -5 -2 -2 -0 -3 -2 1 -2 -2 0 2 3
2 3 -1 -0 1 4 1 2 -1 -3 -4 -2 -4 -2 1 -5 -5 2 -5 -10 2 3 4 6 -1 -1 -2 -2 3 -2 0 -3 -2 -2 -4 -5 5 1 -2 -3 -3 -2 1 2
3 3 -2 5 4 10 -2 0 2 -0 -0 -2 -4 -4 6 3 -1 1 -11 -1 8 10 -1 -33 -7 -3 -1 2 -4 -4 0 -0 0 -1 -0 -6 -1 0 -1 -0 -1 -3 -1 0
5 1 2 3 5 4 0 2 -5 -0 -3 -12 -9 -4 7 4 -2 -3 -2 -4 8 -5 -13 -2 -0 -5 -8 -1 -3 -1 2 -0 3 1 -2 -2 -0 -3 0 -0 1 -1 2 -2
2 -1 6 3 0 -1 2 -1 -0 1 0 3 0 -2 -2 -1 -0 -8 -11 1 -3 -1 -4 5 4 -4 -5 -4 -2 -6 -3 -4 -6 -3 -1 1 -0 -2 -0 -2 -3 -2 0 -0
0 -2 -4 -1 7 2 3 -0 -2 -4 4 -2 -5 -7 1 -0 4 -1 -8 2 1 -6 5 5 -6 -16 -14 -1 7 4 -4 1 3 -3 -1 -5 1 2 1 -3 1 0 -1 -2
-0 -0 -1 0 5 2 4 2 -8 -6 -4 -5 0 2 -3 -4 1 -5 -2 5 -2 -3 1 -6 0 -4 -6 3 -0 -1 18 -4 1 15 1 2 -2 -5 -2 0 4 3 1 -2
2 2 0 -2 -1 -1 -3 0 0 -12 1 8 -2 -5 -6 -2 -6 -14 -9 -5 -0 -1 -1 7 1 -1 6 15 -0 39 36 56 152 -7 -5 -1 -2 -3 -4 2 1 -1 1 -1
-1 -0 -2 -3 -0 -4 -6 -3 2 -6 13 7 -3 -1 -6 -3 -1 -3 -6 -5 -6 3 -1 3 -2 2 19 11 0 19 -4 3 -3 64 16 12 9 -17 -6 0 1 -1 -2 -0
-1 3 -1 -1 0 -9 -4 -1 3 -11 12 12 -8 -4 -3 -5 6 -0 -3 4 -2 1 -3 -3 1 2 10 15 5 -3 22 -10 1 7 2 -8 -6 -6 3 3 -0 1 -2 -0
6 5 -6 0 3 -1 -3 -2 6 -3 -0 2 -0 9 -7 -7 -7 -1 -2 -4 1 2 -2 -1 -1 -2 -6 -4 6 2 9 8 1 -1 -2 -2 -3 5 -1 -0 1 2 3 -1
2 2 -2 2 1 -4 4 6 9 5 -9 -10 0 -12 5 -15 -8 3 1 11 1 4 -0 6 -6 -2 -13 -4 2 -2 -2 3 2 7 -3 -1 1 -3 -1 -1 -1 -0 1 1
-4 -8 -7 -1 -6 -1 1 3 5 -9 1 5 -1 -2 3 -11 -4 -11 -11 -5 11 6 -1 3 -3 10 25 -10 -3 4 -4 2 10 -0 -5 -0 -1 -1 -2 -1 -0 4 1 -2
-0 -4 3 -2 -1 -8 0 5 -5 0 2 -4 -1 4 -2 -3 0 -7 -10 -9 5 1 0 -1 -7 -22 46 -3 -11 1 2 -3 3 -1 -0 -3 -6 -4 -1 1 5 2 2 3
-2 -1 3 -3 -6 -1 4 3 -9 -1 -1 3 15 15 -9 0 -5 -3 4 4 -0 3 -5 -3 1 -8 -14 -3 -5 -6 -2 -1 -1 -2 -2 2 1 2 -0 -1 1 4 4 2
-2 0 -5 7 -0 0 1 3 -5 7 3 4 0 9 -31 27 -1 -9 10 6 -1 9 -11 2 6 3 -1 -5 -3 0 -1 -2 -0 2 -0 -1 1 0 -0 -3 -4 -3 -1 -1
0 1 1 0 6 4 -0 2 -4 -2 -5 -1 -7 -25 0 0 1 -2 -8 -7 -2 9 -7 -4 -12 -7 0 -2 -4 2 2 1 3 6 2 3 3 -2 -1 -1 -4 -4 -4 -1
1 1 2 -1 -3 3 -10 10 3 -1 -1 -0 -1 6 3 -2 2 -1 -7 5 -4 -8 -3 -0 -1 -3 2 -14 -2 -1 -5 1 1 -3 2 5 3 1 2 3 3 2 1 -1
Height
5902 5906 5910 5911 5912 5912 5915 5917 5917 5916 5917 5915 5919 5919 5919 5919 5920 5917 5916 5914 5910 5907 5904 5901 5899 5897 5895 5894 5892 5894 5895 5895 5895 5895 5896 5893 5893 5894 5893 5893 5891 5890 5890 5888
5900 5904 5908 5908 5908 5910 5913 5916 5916 5914 5917 5919 5916 5917 5917 5919 5918 5916 5914 5913 5909 5905 5906 5905 5901 5899 5897 5895 5896 5895 5894 5895 5895 5895 5894 5893 5893 5893 5892 5892 5892 5891 5889 5887
5897 5902 5901 5904 5905 5907 5911 5913 5914 5914 5914 5915 5915 5916 5915 5917 5915 5914 5913 5910 5908 5906 5907 5908 5905 5903 5901 5899 5899 5896 5894 5894 5894 5895 5895 5893 5894 5893 5893 5894 5893 5891 5889 5887
5892 5895 5898 5900 5903 5906 5909 5911 5911 5912 5914 5913 5911 5912 5913 5914 5914 5913 5912 5911 5909 5909 5906 5906 5906 5906 5904 5902 5902 5899 5896 5895 5896 5897 5896 5896 5896 5896 5894 5893 5891 5889 5888 5886
5889 5890 5892 5895 5901 5902 5908 5907 5908 5907 5908 5910 5910 5911 5911 5910 5912 5911 5910 5911 5910 5911 5907 5907 5906 5905 5905 5904 5903 5901 5900 5899 5898 5899 5897 5897 5897 5896 5895 5893 5889 5887 5886 5884
5882 5884 5886 5891 5894 5896 5902 5902 5903 5903 5905 5905 5908 5909 5910 5910 5909 5908 5909 5909 5909 5909 5907 5905 5904 5904 5903 5903 5904 5902 5901 5900 5898 5897 5896 5896 5896 5894 5893 5892 5890 5887 5885 5884
5877 5879 5883 5886 5888 5892 5897 5898 5900 5901 5902 5904 5905 5906 5907 5906 5906 5908 5909 5909 5908 5909 5907 5905 5904 5903 5901 5901 5900 5899 5898 5898 5896 5896 5895 5894 5893 5891 5890 5889 5888 5887 5886 5884
5872 5876 5879 5884 5887 5892 5893 5896 5897 5898 5900 5901 5901 5902 5905 5903 5902 5904 5907 5908 5907 5904 5905 5904 5901 5901 5900 5898 5898 5896 5895 5895 5895 5894 5893 5892 5890 5888 5887 5886 5885 5885 5883 5882
5869 5874 5875 5878 5882 5885 5887 5890 5895 5894 5895 5896 5897 5900 5902 5900 5900 5901 5904 5907 5906 5902 5901 5901 5900 5899 5896 5896 5896 5894 5894 5894 5894 5892 5891 5889 5888 5885 5883 5882 5881 5880 5880 5879
5865 5868 5869 5874 5877 5881 5884 5888 5889 5890 5891 5892 5894 5898 5899 5898 5896 5898 5900 5906 5906 5902 5900 5898 5897 5897 5895 5894 5893 5891 5893 5892 5891 5890 5888 5885 5885 5883 5881 5879 5876 5874 5874 5875
5860 5863 5867 5870 5874 5880 5882 5884 5885 5887 5888 5887 5891 5895 5897 5895 5895 5895 5899 5904 5904 5903 5898 5893 5894 5892 5892 5892 5889 5890 5890 5889 5887 5886 5885 5883 5882 5881 5879 5877 5875 5872 5871 5873
5856 5859 5862 5867 5872 5875 5876 5878 5880 5882 5886 5885 5886 5891 5893 5894 5894 5896 5899 5900 5899 5892 5892 5889 5887 5885 5887 5888 5885 5886 5887 5886 5884 5883 5882 5880 5880 5879 5877 5875 5873 5871 5870 5869
5852 5854 5859 5863 5868 5871 5873 5874 5877 5878 5879 5879 5882 5885 5885 5888 5891 5892 5893 5895 5891 5886 5887 5887 5883 5880 5880 5880 5881 5881 5880 5880 5880 5879 5879 5878 5877 5876 5874 5871 5868 5867 5866 5866
5848 5851 5854 5860 5865 5867 5869 5871 5872 5874 5874 5876 5876 5879 5881 5883 5885 5886 5888 5889 5886 5881 5880 5881 5878 5874 5870 5875 5877 5876 5876 5875 5873 5873 5874 5873 5872 5870 5868 5865 5863 5861 5860 5860
5845 5848 5850 5854 5858 5861 5864 5866 5867 5868 5869 5871 5874 5874 5877 5878 5880 5880 5882 5882 5881 5878 5876 5873 5872 5871 5869 5871 5871 5871 5867 5864 5863 5862 5865 5867 5868 5866 5861 5859 5858 5856 5853 5852
5841 5842 5845 5848 5852 5854 5857 5861 5863 5865 5866 5866 5869 5870 5871 5872 5874 5874 5875 5876 5877 5877 5874 5874 5873 5871 5871 5870 5865 5858 5844 5812 5839 5843 5854 5860 5860 5861 5858 5855 5852 5850 5847 5844
5836 5838 5839 5843 5845 5845 5848 5855 5858 5860 5862 5863 5862 5867 5868 5869 5872 5874 5875 5874 5873 5872 5872 5873 5870 5871 5871 5865 5863 5850 5833 5859 5857 5842 5853 5852 5852 5853 5853 5851 5850 5847 5845 5841
5832 5833 5834 5836 5839 5838 5844 5849 5853 5855 5855 5856 5859 5861 5862 5864 5869 5871 5874 5875 5872 5869 5870 5868 5869 5867 5865 5863 5863 5858 5856 5858 5857 5853 5850 5847 5848 5848 5847 5844 5843 5843 5840 5836
5826 5827 5827 5828 5831 5834 5837 5841 5846 5848 5849 5850 5855 5856 5858 5860 5863 5867 5871 5872 5870 5869 5867 5866 5865 5863 5860 5859 5859 5857 5855 5854 5848 5847 5846 5846 5845 5843 5841 5840 5837 5836 5834 5830
5815 5818 5822 5821 5823 5827 5834 5833 5836 5841 5844 5847 5851 5850 5850 5853 5859 5863 5864 5867 5867 5866 5864 5863 5860 5860 5853 5854 5853 5853 5850 5848 5846 5844 5842 5841 5840 5839 5836 5834 5831 5829 5827 5824
5808 5812 5814 5814 5816 5823 5826 5827 5830 5835 5842 5843 5847 5848 5848 5851 5854 5856 5857 5859 5862 5861 5860 5858 5856 5852 5832 5843 5848 5846 5844 5844 5842 5839 5838 5837 5834 5832 5829 5827 5825 5824 5821 5817
5802 5803 5805 5809 5811 5816 5822 5822 5826 5831 5834 5839 5840 5844 5846 5847 5849 5850 5851 5851 5852 5854 5854 5853 5853 5847 5835 5842 5845 5845 5843 5842 5839 5836 5833 5829 5826 5824 5823 5821 5818 5815 5814 5812
5795 5797 5799 5801 5805 5810 5817 5818 5819 5822 5827 5833 5835 5836 5840 5839 5843 5845 5848 5847 5843 5845 5847 5846 5846 5845 5843 5841 5839 5838 5836 5834 5832 5828 5826 5824 5822 5820 5817 5814 5811 5810 5808 5805
5788 5789 5793 5794 5796 5802 5811 5814 5814 5817 5822 5827 5829 5831 5831 5832 5835 5839 5836 5839 5837 5840 5841 5840 5839 5839 5838 5835 5831 5828 5829 5828 5827 5824 5821 5820 5818 5815 5811 5808 5805 5802 5799 5795
5782 5784 5785 5788 5792 5797 5804 5809 5811 5813 5815 5820 5824 5827 5830 5829 5830 5830 5830 5829 5830 5833 5833 5835 5834 5833 5831 5829 5826 5825 5825 5824 5821 5819 5816 5813 5811 5808 5804 5801 5797 5794 5791 5787
5776 5778 5780 5782 5784 5787 5791 5801 5806 5810 5813 5815 5819 5823 5823 5825 5824 5820 5819 5823 5822 5823 5826 5827 5822 5822 5822 5821 5818 5818 5818 5817 5814 5811 5808 5805 5803 5800 5796 5792 5788 5785 5782 5778